Time,TemperatureF,DewpointF,PressureIn,WindDirection,WindDirectionDegrees,WindSpeedMPH,WindSpeedGustMPH,Humidity,HourlyPrecipIn,Conditions,Clouds,dailyrainin,SoftwareType,DateUTC
2013-10-16 00:02:00,52.5,48.4,30.23,NE,45,0.0,0.0,86,0.00,,,0.00,meteohub,2013-10-16 04:02:00,
2013-10-16 00:07:00,52.2,48.4,30.23,NE,45,0.0,0.0,87,0.00,,,0.00,meteohub,2013-10-16 04:07:00,
2013-10-16 00:12:00,52.0,48.2,30.23,NE,45,0.0,0.0,87,0.00,,,0.00,meteohub,2013-10-16 04:12:00,
2013-10-16 00:17:00,51.6,47.8,30.23,East,90,0.0,0.0,87,0.00,,,0.00,meteohub,2013-10-16 04:17:00,
2013-10-16 00:22:00,51.6,48.2,30.26,East,90,0.0,0.0,88,0.00,,,0.00,meteohub,2013-10-16 04:22:00,
2013-10-16 00:27:00,51.6,48.6,30.26,ENE,68,0.0,0.0,89,0.00,,,0.00,meteohub,2013-10-16 04:27:00,
2013-10-16 00:32:00,51.3,48.2,30.26,ENE,68,0.0,0.0,89,0.00,,,0.00,meteohub,2013-10-16 04:32:00,
2013-10-16 00:37:00,51.3,48.2,30.23,ENE,68,1.0,1.0,89,0.00,,,0.00,meteohub,2013-10-16 04:37:00,
2013-10-16 00:42:00,51.3,48.2,30.23,ENE,68,0.0,1.0,89,0.00,,,0.00,meteohub,2013-10-16 04:42:00,
2013-10-16 00:47:00,51.3,48.2,30.23,ENE,68,0.0,1.0,89,0.00,,,0.00,meteohub,2013-10-16 04:47:00,
2013-10-16 00:52:00,51.1,47.7,30.23,ENE,68,0.0,1.0,88,0.00,,,0.00,meteohub,2013-10-16 04:52:00,
2013-10-16 00:57:00,50.7,47.7,30.23,ENE,68,0.0,0.0,89,0.00,,,0.00,meteohub,2013-10-16 04:57:00,
2013-10-16 01:02:00,50.7,47.8,30.23,ENE,68,0.0,0.0,90,0.00,,,0.00,meteohub,2013-10-16 05:02:00,
2013-10-16 01:07:00,51.1,48.6,30.23,ENE,68,0.0,0.0,91,0.00,,,0.00,meteohub,2013-10-16 05:07:00,
2013-10-16 01:12:00,51.1,48.9,30.23,ENE,68,0.0,0.0,92,0.00,,,0.00,meteohub,2013-10-16 05:12:00,
2013-10-16 01:17:00,51.3,49.1,30.23,NE,45,0.0,0.0,92,0.00,,,0.00,meteohub,2013-10-16 05:17:00,
2013-10-16 01:22:00,51.3,49.1,30.23,ENE,68,0.0,0.0,92,0.00,,,0.00,meteohub,2013-10-16 05:22:00,
2013-10-16 01:27:00,51.1,48.6,30.23,NE,45,0.0,0.0,91,0.00,,,0.00,meteohub,2013-10-16 05:27:00,
2013-10-16 01:32:00,51.1,48.6,30.23,NE,45,0.0,0.0,91,0.00,,,0.00,meteohub,2013-10-16 05:32:00,
2013-10-16 01:37:00,51.1,48.6,30.23,ESE,112,0.0,1.0,91,0.00,,,0.00,meteohub,2013-10-16 05:37:00,
2013-10-16 01:42:00,51.4,49.3,30.23,East,90,0.0,1.0,92,0.00,,,0.00,meteohub,2013-10-16 05:42:00,
2013-10-16 01:47:00,51.4,49.3,30.23,East,90,0.0,1.0,92,0.00,,,0.00,meteohub,2013-10-16 05:47:00,
2013-10-16 01:52:00,50.5,47.7,30.23,NE,45,0.0,0.0,90,0.00,,,0.00,meteohub,2013-10-16 05:52:00,
2013-10-16 01:57:00,50.2,47.3,30.23,NE,45,0.0,0.0,90,0.00,,,0.00,meteohub,2013-10-16 05:57:00,
2013-10-16 02:02:00,50.0,47.1,30.23,NE,45,0.0,0.0,90,0.00,,,0.00,meteohub,2013-10-16 06:02:00,
2013-10-16 02:07:00,49.6,46.8,30.26,NE,45,0.0,0.0,90,0.00,,,0.00,meteohub,2013-10-16 06:07:00,
2013-10-16 02:12:00,49.5,46.6,30.26,NE,45,0.0,0.0,90,0.00,,,0.00,meteohub,2013-10-16 06:12:00,
2013-10-16 02:17:00,49.5,46.9,30.26,East,90,0.0,0.0,91,0.00,,,0.00,meteohub,2013-10-16 06:17:00,
2013-10-16 02:22:00,49.5,47.3,30.20,East,90,0.0,0.0,92,0.00,,,0.00,meteohub,2013-10-16 06:22:00,
2013-10-16 02:27:00,49.5,47.3,30.20,East,90,0.0,0.0,92,0.00,,,0.00,meteohub,2013-10-16 06:27:00,
2013-10-16 02:32:00,49.3,46.8,30.20,ESE,112,0.0,0.0,91,0.00,,,0.00,meteohub,2013-10-16 06:32:00,
2013-10-16 02:37:00,49.3,46.8,30.20,ESE,112,0.0,0.0,91,0.00,,,0.00,meteohub,2013-10-16 06:37:00,
2013-10-16 02:42:00,49.1,46.6,30.20,ESE,112,0.0,0.0,91,0.00,,,0.00,meteohub,2013-10-16 06:42:00,
2013-10-16 02:47:00,48.7,45.9,30.20,ESE,112,0.0,0.0,90,0.00,,,0.00,meteohub,2013-10-16 06:47:00,
2013-10-16 02:52:00,48.4,45.3,30.20,WNW,292,0.0,0.0,89,0.00,,,0.00,meteohub,2013-10-16 06:52:00,
2013-10-16 02:57:00,48.2,45.5,30.20,WNW,292,0.0,0.0,90,0.00,,,0.00,meteohub,2013-10-16 06:57:00,
2013-10-16 03:02:00,48.2,45.7,30.20,WSW,248,0.0,0.0,91,0.00,,,0.00,meteohub,2013-10-16 07:02:00,
2013-10-16 03:07:00,48.4,46.2,30.23,SE,135,0.0,0.0,92,0.00,,,0.00,meteohub,2013-10-16 07:07:00,
2013-10-16 03:12:00,48.6,46.4,30.23,SSE,158,1.0,0.0,92,0.00,,,0.00,meteohub,2013-10-16 07:12:00,
2013-10-16 03:17:00,48.9,46.9,30.23,East,90,0.0,1.0,93,0.00,,,0.00,meteohub,2013-10-16 07:17:00,
2013-10-16 03:22:00,49.1,47.5,30.23,East,90,0.0,1.0,94,0.00,,,0.00,meteohub,2013-10-16 07:22:00,
2013-10-16 03:27:00,49.3,47.7,30.23,East,90,0.0,1.0,94,0.00,,,0.00,meteohub,2013-10-16 07:27:00,
2013-10-16 03:32:00,49.6,47.7,30.23,East,90,0.0,0.0,93,0.00,,,0.00,meteohub,2013-10-16 07:32:00,
2013-10-16 03:37:00,49.8,48.2,30.23,East,90,0.0,0.0,94,0.00,,,0.00,meteohub,2013-10-16 07:37:00,
2013-10-16 03:42:00,50.0,48.4,30.23,East,90,0.0,0.0,94,0.00,,,0.00,meteohub,2013-10-16 07:42:00,
2013-10-16 03:47:00,50.2,48.6,30.23,East,90,0.0,0.0,94,0.00,,,0.00,meteohub,2013-10-16 07:47:00,
2013-10-16 03:52:00,50.4,48.7,30.23,SW,225,0.0,0.0,94,0.00,,,0.00,meteohub,2013-10-16 07:52:00,
2013-10-16 03:57:00,50.4,48.9,30.23,ENE,68,0.0,0.0,95,0.00,,,0.00,meteohub,2013-10-16 07:57:00,
2013-10-16 04:02:00,50.5,49.1,30.23,ENE,68,0.0,0.0,95,0.00,,,0.00,meteohub,2013-10-16 08:02:00,
2013-10-16 04:07:00,50.7,49.3,30.23,ENE,68,0.0,0.0,95,0.00,,,0.00,meteohub,2013-10-16 08:07:00,
2013-10-16 04:12:00,50.9,49.5,30.23,SE,135,0.0,0.0,95,0.00,,,0.00,meteohub,2013-10-16 08:12:00,
2013-10-16 04:17:00,50.9,49.5,30.23,East,90,0.0,0.0,95,0.00,,,0.00,meteohub,2013-10-16 08:17:00,
2013-10-16 04:22:00,50.7,49.1,30.20,East,90,0.0,0.0,94,0.00,,,0.00,meteohub,2013-10-16 08:22:00,
2013-10-16 04:27:00,50.5,48.9,30.20,East,90,0.0,0.0,94,0.00,,,0.00,meteohub,2013-10-16 08:27:00,
2013-10-16 04:32:00,50.5,49.1,30.20,ENE,68,0.0,0.0,95,0.00,,,0.00,meteohub,2013-10-16 08:32:00,
2013-10-16 04:37:00,50.7,49.3,30.23,NNE,22,0.0,2.0,95,0.00,,,0.00,meteohub,2013-10-16 08:37:00,
2013-10-16 04:42:00,50.7,49.3,30.23,NNE,22,0.0,2.0,95,0.00,,,0.00,meteohub,2013-10-16 08:42:00,
2013-10-16 04:47:00,50.5,49.1,30.23,NNE,22,0.0,2.0,95,0.00,,,0.00,meteohub,2013-10-16 08:47:00,
2013-10-16 04:52:00,50.5,49.1,30.23,NNE,22,0.0,0.0,95,0.00,,,0.00,meteohub,2013-10-16 08:52:00,
2013-10-16 04:57:00,50.5,49.5,30.23,NNE,22,0.0,0.0,96,0.00,,,0.00,meteohub,2013-10-16 08:57:00,
2013-10-16 05:02:00,50.5,49.5,30.23,NNE,22,0.0,0.0,96,0.00,,,0.00,meteohub,2013-10-16 09:02:00,
2013-10-16 05:07:00,50.5,49.6,30.23,NNE,22,0.0,0.0,97,0.00,,,0.00,meteohub,2013-10-16 09:07:00,
2013-10-16 05:12:00,50.5,49.6,30.23,NNE,22,0.0,0.0,97,0.00,,,0.00,meteohub,2013-10-16 09:12:00,
2013-10-16 05:17:00,50.7,49.8,30.23,ENE,68,1.0,0.0,97,0.00,,,0.00,meteohub,2013-10-16 09:17:00,
2013-10-16 05:22:00,50.7,50.2,30.20,ENE,68,0.0,1.0,98,0.00,,,0.00,meteohub,2013-10-16 09:22:00,
2013-10-16 05:27:00,50.7,50.2,30.20,NE,45,0.0,2.0,98,0.00,,,0.00,meteohub,2013-10-16 09:27:00,
2013-10-16 05:32:00,50.7,49.8,30.20,ESE,112,0.0,2.0,97,0.00,,,0.00,meteohub,2013-10-16 09:32:00,
2013-10-16 05:37:00,50.9,50.0,30.20,SSW,202,0.0,2.0,97,0.00,,,0.00,meteohub,2013-10-16 09:37:00,
2013-10-16 05:42:00,50.9,50.0,30.20,WSW,248,0.0,0.0,97,0.00,,,0.00,meteohub,2013-10-16 09:42:00,
2013-10-16 05:47:00,50.9,50.4,30.20,West,270,0.0,0.0,98,0.00,,,0.00,meteohub,2013-10-16 09:47:00,
2013-10-16 05:52:00,50.9,50.4,30.20,West,270,0.0,0.0,98,0.00,,,0.00,meteohub,2013-10-16 09:52:00,
2013-10-16 05:57:00,50.9,50.4,30.20,West,270,0.0,0.0,98,0.00,,,0.00,meteohub,2013-10-16 09:57:00,
2013-10-16 06:02:00,51.1,50.5,30.20,West,270,0.0,0.0,98,0.00,,,0.00,meteohub,2013-10-16 10:02:00,
2013-10-16 06:07:00,51.1,50.5,30.20,West,270,0.0,0.0,98,0.00,,,0.00,meteohub,2013-10-16 10:07:00,
2013-10-16 06:12:00,51.1,50.5,30.20,NNW,338,0.0,0.0,98,0.00,,,0.00,meteohub,2013-10-16 10:12:00,
2013-10-16 06:17:00,51.1,50.5,30.20,NE,45,0.0,0.0,98,0.00,,,0.00,meteohub,2013-10-16 10:17:00,
2013-10-16 06:22:00,51.1,50.5,30.20,NE,45,0.0,1.0,98,0.00,,,0.00,meteohub,2013-10-16 10:22:00,
2013-10-16 06:27:00,51.1,50.5,30.20,NNW,338,0.0,1.0,98,0.00,,,0.00,meteohub,2013-10-16 10:27:00,
2013-10-16 06:32:00,51.1,50.5,30.20,NNW,338,0.0,1.0,98,0.00,,,0.00,meteohub,2013-10-16 10:32:00,
2013-10-16 06:37:00,51.1,50.5,30.20,North,0,0.0,0.0,98,0.00,,,0.00,meteohub,2013-10-16 10:37:00,
2013-10-16 06:42:00,51.1,50.5,30.20,NNE,22,0.0,0.0,98,0.00,,,0.00,meteohub,2013-10-16 10:42:00,
2013-10-16 06:47:00,51.1,50.5,30.20,ENE,68,0.0,0.0,98,0.00,,,0.00,meteohub,2013-10-16 10:47:00,
2013-10-16 06:52:00,51.3,50.7,30.20,NNW,338,0.0,0.0,98,0.00,,,0.00,meteohub,2013-10-16 10:52:00,
2013-10-16 06:57:00,51.3,50.7,30.20,NNW,338,0.0,0.0,98,0.00,,,0.00,meteohub,2013-10-16 10:57:00,
2013-10-16 07:02:00,51.4,50.9,30.20,NNW,338,0.0,0.0,98,0.00,,,0.00,meteohub,2013-10-16 11:02:00,
2013-10-16 07:07:00,51.4,50.9,30.20,NNW,338,0.0,0.0,98,0.00,,,0.00,meteohub,2013-10-16 11:07:00,
2013-10-16 07:12:00,51.4,50.9,30.20,NNW,338,0.0,1.0,98,0.00,,,0.00,meteohub,2013-10-16 11:12:00,
2013-10-16 07:17:00,51.6,51.1,30.20,NNW,338,0.0,1.0,98,0.00,,,0.00,meteohub,2013-10-16 11:17:00,
2013-10-16 07:22:00,51.6,51.1,30.20,NNW,338,0.0,1.0,98,0.00,,,0.00,meteohub,2013-10-16 11:22:00,
2013-10-16 07:27:00,51.6,51.1,30.20,NNW,338,0.0,0.0,98,0.00,,,0.00,meteohub,2013-10-16 11:27:00,
2013-10-16 07:32:00,51.6,51.1,30.20,NNW,338,0.0,0.0,98,0.00,,,0.00,meteohub,2013-10-16 11:32:00,
2013-10-16 07:37:00,51.6,51.1,30.20,NNW,338,0.0,0.0,98,0.00,,,0.00,meteohub,2013-10-16 11:37:00,
2013-10-16 07:42:00,51.8,51.3,30.20,NNW,338,0.0,0.0,98,0.00,,,0.00,meteohub,2013-10-16 11:42:00,
2013-10-16 07:47:00,51.8,51.3,30.20,NNW,338,0.0,1.0,98,0.00,,,0.00,meteohub,2013-10-16 11:47:00,
2013-10-16 07:52:00,51.8,51.3,30.20,NNW,338,0.0,1.0,98,0.00,,,0.00,meteohub,2013-10-16 11:52:00,
2013-10-16 07:57:00,52.0,51.4,30.20,NNW,338,0.0,1.0,98,0.00,,,0.00,meteohub,2013-10-16 11:57:00,
2013-10-16 08:02:00,52.0,51.4,30.20,North,0,0.0,0.0,98,0.00,,,0.00,meteohub,2013-10-16 12:02:00,
2013-10-16 08:07:00,52.0,51.4,30.20,North,0,0.0,0.0,98,0.00,,,0.00,meteohub,2013-10-16 12:07:00,
2013-10-16 08:12:00,52.0,51.4,30.20,North,0,0.0,0.0,98,0.00,,,0.00,meteohub,2013-10-16 12:12:00,
2013-10-16 08:17:00,52.0,51.4,30.20,North,0,0.0,0.0,98,0.00,,,0.00,meteohub,2013-10-16 12:17:00,
2013-10-16 08:22:00,52.2,51.6,30.20,ENE,68,0.0,0.0,98,0.00,,,0.00,meteohub,2013-10-16 12:22:00,
2013-10-16 08:27:00,52.2,51.6,30.20,NE,45,0.0,1.0,98,0.00,,,0.00,meteohub,2013-10-16 12:27:00,
2013-10-16 08:32:00,52.2,51.6,30.20,ENE,68,0.0,1.0,98,0.00,,,0.00,meteohub,2013-10-16 12:32:00,
2013-10-16 08:37:00,52.3,51.8,30.20,NNW,338,0.0,1.0,98,0.00,,,0.00,meteohub,2013-10-16 12:37:00,
2013-10-16 08:42:00,52.3,51.8,30.20,NNW,338,0.0,1.0,98,0.00,,,0.00,meteohub,2013-10-16 12:42:00,
2013-10-16 08:47:00,52.3,51.8,30.20,NW,315,0.0,0.0,98,0.00,,,0.00,meteohub,2013-10-16 12:47:00,
2013-10-16 08:52:00,52.3,51.8,30.20,NE,45,0.0,1.0,98,0.00,,,0.00,meteohub,2013-10-16 12:52:00,
2013-10-16 08:57:00,52.3,51.8,30.20,WNW,292,0.0,1.0,98,0.00,,,0.00,meteohub,2013-10-16 12:57:00,
2013-10-16 09:02:00,52.3,51.8,30.20,SSE,158,0.0,1.0,98,0.00,,,0.00,meteohub,2013-10-16 13:02:00,
2013-10-16 09:07:00,52.5,52.0,30.17,SE,135,1.0,1.0,98,0.00,,,0.00,meteohub,2013-10-16 13:07:00,
2013-10-16 09:12:00,52.7,52.2,30.17,WNW,292,0.0,2.0,98,0.00,,,0.00,meteohub,2013-10-16 13:12:00,
2013-10-16 09:17:00,52.7,52.2,30.17,WNW,292,0.0,2.0,98,0.00,,,0.00,meteohub,2013-10-16 13:17:00,
2013-10-16 09:22:00,52.9,52.3,30.17,NE,45,1.0,2.0,98,0.00,,,0.00,meteohub,2013-10-16 13:22:00,
2013-10-16 09:27:00,52.9,52.3,30.20,East,90,0.0,2.0,98,0.00,,,0.00,meteohub,2013-10-16 13:27:00,
2013-10-16 09:32:00,53.1,52.5,30.20,NW,315,0.0,3.0,98,0.00,,,0.00,meteohub,2013-10-16 13:32:00,
2013-10-16 09:37:00,53.1,52.5,30.17,WNW,292,0.0,3.0,98,0.00,,,0.00,meteohub,2013-10-16 13:37:00,
2013-10-16 09:42:00,53.1,52.5,30.17,NW,315,0.0,2.0,98,0.00,,,0.00,meteohub,2013-10-16 13:42:00,
2013-10-16 09:47:00,53.1,52.5,30.17,West,270,0.0,2.0,98,0.00,,,0.00,meteohub,2013-10-16 13:47:00,
2013-10-16 09:52:00,53.2,52.7,30.17,West,270,1.0,1.0,98,0.00,,,0.00,meteohub,2013-10-16 13:52:00,
2013-10-16 09:57:00,53.4,52.9,30.17,NNW,338,0.0,1.0,98,0.00,,,0.00,meteohub,2013-10-16 13:57:00,
2013-10-16 10:02:00,53.6,53.1,30.17,ENE,68,0.0,3.0,98,0.00,,,0.00,meteohub,2013-10-16 14:02:00,
2013-10-16 10:07:00,53.8,53.2,30.17,NW,315,1.0,3.0,98,0.00,,,0.00,meteohub,2013-10-16 14:07:00,
2013-10-16 10:12:00,54.0,53.4,30.17,NW,315,0.0,3.0,98,0.00,,,0.00,meteohub,2013-10-16 14:12:00,
2013-10-16 10:17:00,54.1,53.6,30.17,NE,45,0.0,1.0,98,0.00,,,0.00,meteohub,2013-10-16 14:17:00,
2013-10-16 10:22:00,54.3,53.8,30.17,NNE,22,0.0,2.0,98,0.00,,,0.00,meteohub,2013-10-16 14:22:00,
2013-10-16 10:27:00,54.5,54.0,30.17,NNW,338,1.0,3.0,98,0.00,,,0.00,meteohub,2013-10-16 14:27:00,
2013-10-16 10:32:00,54.7,54.1,30.17,NW,315,0.0,3.0,98,0.00,,,0.00,meteohub,2013-10-16 14:32:00,
2013-10-16 10:37:00,54.7,54.1,30.14,NNW,338,0.0,3.0,98,0.00,,,0.00,meteohub,2013-10-16 14:37:00,
2013-10-16 10:42:00,55.4,54.9,30.14,North,0,0.0,2.0,98,0.00,,,0.00,meteohub,2013-10-16 14:42:00,
2013-10-16 10:47:00,55.9,55.4,30.14,South,180,2.0,2.0,98,0.00,,,0.00,meteohub,2013-10-16 14:47:00,
2013-10-16 10:52:00,56.1,55.6,30.14,NW,315,0.0,3.0,98,0.00,,,0.00,meteohub,2013-10-16 14:52:00,
2013-10-16 10:57:00,56.3,54.9,30.14,NNW,338,0.0,3.0,95,0.00,,,0.00,meteohub,2013-10-16 14:57:00,
2013-10-16 11:02:00,56.8,54.3,30.14,ENE,68,1.0,3.0,91,0.00,,,0.00,meteohub,2013-10-16 15:02:00,
2013-10-16 11:07:00,57.0,52.2,30.17,WNW,292,2.0,2.0,84,0.00,,,0.00,meteohub,2013-10-16 15:07:00,
2013-10-16 11:12:00,57.2,52.7,30.17,WNW,292,1.0,2.0,85,0.00,,,0.00,meteohub,2013-10-16 15:12:00,
2013-10-16 11:17:00,57.2,50.4,30.17,NW,315,2.0,2.0,78,0.00,,,0.00,meteohub,2013-10-16 15:17:00,
2013-10-16 11:22:00,57.2,50.0,30.17,North,0,0.0,2.0,77,0.00,,,0.00,meteohub,2013-10-16 15:22:00,
2013-10-16 11:27:00,57.7,50.9,30.17,NW,315,1.0,2.0,78,0.00,,,0.00,meteohub,2013-10-16 15:27:00,
2013-10-16 11:32:00,57.9,50.0,30.17,NW,315,2.0,2.0,75,0.00,,,0.00,meteohub,2013-10-16 15:32:00,
2013-10-16 11:37:00,57.9,49.6,30.17,North,0,1.0,2.0,74,0.00,,,0.00,meteohub,2013-10-16 15:37:00,
2013-10-16 11:42:00,58.1,50.2,30.17,SW,225,1.0,3.0,75,0.00,,,0.00,meteohub,2013-10-16 15:42:00,
2013-10-16 11:47:00,58.3,49.6,30.17,West,270,0.0,3.0,73,0.00,,,0.00,meteohub,2013-10-16 15:47:00,
2013-10-16 11:52:00,58.3,50.0,30.14,North,0,0.0,3.0,74,0.00,,,0.00,meteohub,2013-10-16 15:52:00,
2013-10-16 11:57:00,58.5,49.8,30.14,ESE,112,1.0,4.0,73,0.00,,,0.00,meteohub,2013-10-16 15:57:00,
2013-10-16 12:02:00,58.5,49.8,30.14,North,0,1.0,4.0,73,0.00,,,0.00,meteohub,2013-10-16 16:02:00,
2013-10-16 12:07:00,58.5,49.8,30.14,North,0,0.0,4.0,73,0.00,,,0.00,meteohub,2013-10-16 16:07:00,
2013-10-16 12:12:00,58.5,49.5,30.12,ENE,68,0.0,4.0,72,0.00,,,0.00,meteohub,2013-10-16 16:12:00,
2013-10-16 12:17:00,58.5,49.1,30.12,East,90,2.0,3.0,71,0.00,,,0.00,meteohub,2013-10-16 16:17:00,
2013-10-16 12:22:00,58.6,49.3,30.12,SSW,202,0.0,3.0,71,0.00,,,0.00,meteohub,2013-10-16 16:22:00,
2013-10-16 12:27:00,58.6,49.6,30.12,WSW,248,0.0,3.0,72,0.00,,,0.00,meteohub,2013-10-16 16:27:00,
2013-10-16 12:32:00,58.6,49.3,30.12,NNW,338,0.0,3.0,71,0.00,,,0.00,meteohub,2013-10-16 16:32:00,
2013-10-16 12:37:00,58.6,48.6,30.12,North,0,0.0,2.0,69,0.00,,,0.00,meteohub,2013-10-16 16:37:00,
2013-10-16 12:42:00,58.6,48.2,30.12,NNW,338,0.0,1.0,68,0.00,,,0.00,meteohub,2013-10-16 16:42:00,
2013-10-16 12:47:00,58.6,48.6,30.12,SE,135,0.0,1.0,69,0.00,,,0.00,meteohub,2013-10-16 16:47:00,
2013-10-16 12:52:00,58.8,49.1,30.12,NE,45,1.0,1.0,70,0.00,,,0.00,meteohub,2013-10-16 16:52:00,
2013-10-16 12:57:00,58.8,48.7,30.12,ENE,68,1.0,1.0,69,0.00,,,0.00,meteohub,2013-10-16 16:57:00,
2013-10-16 13:02:00,58.8,48.7,30.12,WNW,292,0.0,3.0,69,0.00,,,0.00,meteohub,2013-10-16 17:02:00,
2013-10-16 13:07:00,59.0,48.9,30.09,ENE,68,1.0,3.0,69,0.00,,,0.00,meteohub,2013-10-16 17:07:00,
2013-10-16 13:12:00,59.0,48.9,30.09,North,0,0.0,3.0,69,0.00,,,0.00,meteohub,2013-10-16 17:12:00,
2013-10-16 13:17:00,59.0,49.3,30.09,ENE,68,2.0,2.0,70,0.00,,,0.00,meteohub,2013-10-16 17:17:00,
2013-10-16 13:22:00,59.2,49.5,30.12,NNW,338,0.0,3.0,70,0.00,,,0.00,meteohub,2013-10-16 17:22:00,
2013-10-16 13:27:00,59.0,48.9,30.12,NNW,338,0.0,3.0,69,0.00,,,0.00,meteohub,2013-10-16 17:27:00,
2013-10-16 13:32:00,59.0,48.4,30.12,NNW,338,0.0,2.0,68,0.00,,,0.00,meteohub,2013-10-16 17:32:00,
2013-10-16 13:37:00,59.2,48.6,30.12,NNW,338,0.0,1.0,68,0.00,,,0.00,meteohub,2013-10-16 17:37:00,
2013-10-16 13:42:00,59.4,49.3,30.12,North,0,0.0,0.0,69,0.00,,,0.00,meteohub,2013-10-16 17:42:00,
2013-10-16 13:47:00,59.4,49.3,30.12,SW,225,0.0,3.0,69,0.00,,,0.00,meteohub,2013-10-16 17:47:00,
2013-10-16 13:52:00,59.4,49.3,30.09,SW,225,0.0,3.0,69,0.00,,,0.00,meteohub,2013-10-16 17:52:00,
2013-10-16 13:57:00,59.4,48.7,30.09,SW,225,0.0,3.0,68,0.00,,,0.00,meteohub,2013-10-16 17:57:00,
2013-10-16 14:02:00,59.4,48.7,30.09,East,90,0.0,1.0,68,0.00,,,0.00,meteohub,2013-10-16 18:02:00,
2013-10-16 14:07:00,59.4,48.7,30.09,WSW,248,0.0,2.0,68,0.00,,,0.00,meteohub,2013-10-16 18:07:00,
2013-10-16 14:12:00,59.4,48.4,30.09,WSW,248,0.0,2.0,67,0.00,,,0.00,meteohub,2013-10-16 18:12:00,
2013-10-16 14:17:00,59.4,48.4,30.09,WSW,248,0.0,1.0,67,0.00,,,0.00,meteohub,2013-10-16 18:17:00,
2013-10-16 14:22:00,59.4,48.0,30.09,WSW,248,0.0,0.0,66,0.00,,,0.00,meteohub,2013-10-16 18:22:00,
2013-10-16 14:27:00,59.4,48.4,30.09,WSW,248,0.0,0.0,67,0.00,,,0.00,meteohub,2013-10-16 18:27:00,
2013-10-16 14:32:00,59.4,48.4,30.09,ENE,68,0.0,0.0,67,0.00,,,0.00,meteohub,2013-10-16 18:32:00,
2013-10-16 14:37:00,59.4,48.4,30.09,NE,45,0.0,1.0,67,0.00,,,0.00,meteohub,2013-10-16 18:37:00,
2013-10-16 14:42:00,59.4,48.7,30.09,NE,45,1.0,1.0,68,0.00,,,0.00,meteohub,2013-10-16 18:42:00,
2013-10-16 14:47:00,59.4,48.7,30.09,NE,45,0.0,2.0,68,0.00,,,0.00,meteohub,2013-10-16 18:47:00,
2013-10-16 14:52:00,59.4,49.3,30.09,WSW,248,1.0,2.0,69,0.00,,,0.00,meteohub,2013-10-16 18:52:00,
2013-10-16 14:57:00,59.2,49.1,30.03,WSW,248,0.0,2.0,69,0.00,,,0.00,meteohub,2013-10-16 18:57:00,
2013-10-16 15:02:00,59.2,49.1,30.03,North,0,0.0,2.0,69,0.00,,,0.00,meteohub,2013-10-16 19:02:00,
2013-10-16 15:07:00,59.2,49.1,30.09,WSW,248,0.0,1.0,69,0.00,,,0.00,meteohub,2013-10-16 19:07:00,
2013-10-16 15:12:00,59.2,49.1,30.09,SSE,158,0.0,2.0,69,0.00,,,0.00,meteohub,2013-10-16 19:12:00,
2013-10-16 15:17:00,59.2,49.1,30.09,East,90,0.0,2.0,69,0.00,,,0.00,meteohub,2013-10-16 19:17:00,
2013-10-16 15:22:00,59.2,48.6,30.09,NNW,338,1.0,2.0,68,0.00,,,0.00,meteohub,2013-10-16 19:22:00,
2013-10-16 15:27:00,59.2,49.1,30.09,NNW,338,0.0,1.0,69,0.00,,,0.00,meteohub,2013-10-16 19:27:00,
2013-10-16 15:32:00,59.2,49.1,30.09,NNW,338,0.0,1.0,69,0.00,,,0.00,meteohub,2013-10-16 19:32:00,
2013-10-16 15:37:00,59.2,49.1,30.09,NNW,338,0.0,1.0,69,0.00,,,0.00,meteohub,2013-10-16 19:37:00,
2013-10-16 15:42:00,59.2,49.5,30.09,ENE,68,0.0,0.0,70,0.00,,,0.00,meteohub,2013-10-16 19:42:00,
2013-10-16 15:47:00,59.0,49.3,30.09,ENE,68,0.0,0.0,70,0.00,,,0.00,meteohub,2013-10-16 19:47:00,
2013-10-16 15:52:00,58.8,49.1,30.06,ENE,68,0.0,0.0,70,0.00,,,0.00,meteohub,2013-10-16 19:52:00,
2013-10-16 15:57:00,58.8,49.1,30.06,NNW,338,0.0,0.0,70,0.00,,,0.00,meteohub,2013-10-16 19:57:00,
2013-10-16 16:02:00,58.8,49.1,30.06,NE,45,0.0,0.0,70,0.00,,,0.00,meteohub,2013-10-16 20:02:00,
2013-10-16 16:07:00,58.8,49.5,30.06,NNE,22,0.0,0.0,71,0.00,,,0.00,meteohub,2013-10-16 20:07:00,
2013-10-16 16:12:00,58.6,49.3,30.06,NNE,22,0.0,0.0,71,0.00,,,0.00,meteohub,2013-10-16 20:12:00,
2013-10-16 16:17:00,58.6,49.3,30.06,NNE,22,0.0,0.0,71,0.00,,,0.00,meteohub,2013-10-16 20:17:00,
2013-10-16 16:22:00,58.6,49.3,30.06,NNE,22,0.0,0.0,71,0.00,,,0.00,meteohub,2013-10-16 20:22:00,
2013-10-16 16:27:00,58.6,49.3,30.06,NNE,22,0.0,0.0,71,0.00,,,0.00,meteohub,2013-10-16 20:27:00,
2013-10-16 16:32:00,58.5,49.1,30.06,NNE,22,0.0,0.0,71,0.00,,,0.00,meteohub,2013-10-16 20:32:00,
2013-10-16 16:37:00,58.5,49.5,30.06,SSW,202,0.0,0.0,72,0.00,,,0.00,meteohub,2013-10-16 20:37:00,
2013-10-16 16:42:00,58.5,49.5,30.06,SSW,202,0.0,0.0,72,0.00,,,0.00,meteohub,2013-10-16 20:42:00,
2013-10-16 16:47:00,58.5,49.5,30.06,SSW,202,0.0,0.0,72,0.00,,,0.00,meteohub,2013-10-16 20:47:00,
2013-10-16 16:52:00,58.3,49.3,30.03,SSW,202,0.0,0.0,72,0.00,,,0.00,meteohub,2013-10-16 20:52:00,
2013-10-16 16:57:00,58.3,49.3,30.03,SSW,202,0.0,0.0,72,0.00,,,0.00,meteohub,2013-10-16 20:57:00,
2013-10-16 17:02:00,58.1,49.1,30.03,ENE,68,0.0,0.0,72,0.00,,,0.00,meteohub,2013-10-16 21:02:00,
2013-10-16 17:07:00,58.1,49.5,30.06,South,180,0.0,0.0,73,0.00,,,0.00,meteohub,2013-10-16 21:07:00,
2013-10-16 17:12:00,57.9,49.3,30.06,SW,225,0.0,0.0,73,0.00,,,0.00,meteohub,2013-10-16 21:12:00,
2013-10-16 17:17:00,57.9,49.3,30.06,SW,225,0.0,0.0,73,0.00,,,0.00,meteohub,2013-10-16 21:17:00,
2013-10-16 17:22:00,57.9,49.3,30.06,SW,225,0.0,0.0,73,0.00,,,0.00,meteohub,2013-10-16 21:22:00,
2013-10-16 17:27:00,57.7,49.5,30.06,SW,225,0.0,0.0,74,0.00,,,0.00,meteohub,2013-10-16 21:27:00,
2013-10-16 17:32:00,57.6,49.3,30.06,SW,225,0.0,0.0,74,0.00,,,0.00,meteohub,2013-10-16 21:32:00,
2013-10-16 17:37:00,57.6,49.3,30.06,SW,225,0.0,0.0,74,0.00,,,0.00,meteohub,2013-10-16 21:37:00,
2013-10-16 17:42:00,57.4,49.5,30.06,SW,225,0.0,0.0,75,0.00,,,0.00,meteohub,2013-10-16 21:42:00,
2013-10-16 17:47:00,57.4,49.5,30.06,SW,225,0.0,0.0,75,0.00,,,0.00,meteohub,2013-10-16 21:47:00,
2013-10-16 17:52:00,57.2,49.6,30.06,SW,225,0.0,0.0,76,0.00,,,0.00,meteohub,2013-10-16 21:52:00,
2013-10-16 17:57:00,57.0,49.8,30.06,SW,225,0.0,0.0,77,0.00,,,0.00,meteohub,2013-10-16 21:57:00,
2013-10-16 18:02:00,57.0,50.2,30.06,NE,45,1.0,0.0,78,0.00,,,0.00,meteohub,2013-10-16 22:02:00,
2013-10-16 18:07:00,56.8,50.4,30.06,NE,45,0.0,2.0,79,0.00,,,0.00,meteohub,2013-10-16 22:07:00,
2013-10-16 18:12:00,56.8,50.4,30.06,SSW,202,0.0,2.0,79,0.00,,,0.00,meteohub,2013-10-16 22:12:00,
2013-10-16 18:17:00,56.7,50.2,30.06,SW,225,0.0,2.0,79,0.00,,,0.00,meteohub,2013-10-16 22:17:00,
2013-10-16 18:22:00,56.7,50.5,30.06,South,180,0.0,0.0,80,0.00,,,0.00,meteohub,2013-10-16 22:22:00,
2013-10-16 18:27:00,56.7,50.9,30.06,SSW,202,0.0,1.0,81,0.00,,,0.00,meteohub,2013-10-16 22:27:00,
2013-10-16 18:32:00,56.7,50.9,30.06,East,90,0.0,1.0,81,0.00,,,0.00,meteohub,2013-10-16 22:32:00,
2013-10-16 18:37:00,56.5,50.7,30.09,East,90,0.0,2.0,81,0.00,,,0.00,meteohub,2013-10-16 22:37:00,
2013-10-16 18:42:00,56.5,50.7,30.09,SSW,202,0.0,2.0,81,0.00,,,0.00,meteohub,2013-10-16 22:42:00,
2013-10-16 18:47:00,56.5,51.1,30.09,East,90,0.0,2.0,82,0.00,,,0.00,meteohub,2013-10-16 22:47:00,
2013-10-16 18:52:00,56.3,50.5,30.06,ENE,68,0.0,1.0,81,0.00,,,0.00,meteohub,2013-10-16 22:52:00,
2013-10-16 18:57:00,56.3,50.5,30.06,ENE,68,0.0,1.0,81,0.00,,,0.00,meteohub,2013-10-16 22:57:00,
2013-10-16 19:02:00,56.3,50.9,30.06,SW,225,0.0,1.0,82,0.00,,,0.00,meteohub,2013-10-16 23:02:00,
2013-10-16 19:07:00,56.3,50.9,30.06,SW,225,0.0,2.0,82,0.00,,,0.00,meteohub,2013-10-16 23:07:00,
2013-10-16 19:12:00,56.3,51.3,30.06,SW,225,0.0,2.0,83,0.00,,,0.00,meteohub,2013-10-16 23:12:00,
2013-10-16 19:17:00,56.3,50.9,30.06,NE,45,0.0,2.0,82,0.00,,,0.00,meteohub,2013-10-16 23:17:00,
2013-10-16 19:22:00,56.1,51.1,30.06,ESE,112,0.0,1.0,83,0.00,,,0.00,meteohub,2013-10-16 23:22:00,
2013-10-16 19:27:00,56.1,51.1,30.06,WSW,248,0.0,1.0,83,0.00,,,0.00,meteohub,2013-10-16 23:27:00,
2013-10-16 19:32:00,55.9,50.9,30.06,NNE,22,0.0,1.0,83,0.00,,,0.00,meteohub,2013-10-16 23:32:00,
2013-10-16 19:37:00,55.8,51.1,30.06,SSW,202,0.0,1.0,84,0.00,,,0.00,meteohub,2013-10-16 23:37:00,
2013-10-16 19:42:00,55.8,51.3,30.06,NE,45,0.0,2.0,85,0.00,,,0.00,meteohub,2013-10-16 23:42:00,
2013-10-16 19:47:00,55.8,51.1,30.06,SSW,202,0.0,2.0,84,0.00,,,0.00,meteohub,2013-10-16 23:47:00,
2013-10-16 19:52:00,55.8,51.3,30.06,SSW,202,0.0,2.0,85,0.00,,,0.00,meteohub,2013-10-16 23:52:00,
2013-10-16 19:57:00,55.8,51.3,30.06,SSW,202,0.0,2.0,85,0.00,,,0.00,meteohub,2013-10-16 23:57:00,
2013-10-16 20:02:00,55.6,51.1,30.06,SSW,202,0.0,0.0,85,0.00,,,0.00,meteohub,2013-10-17 00:02:00,
2013-10-16 20:07:00,55.4,50.9,30.03,ENE,68,0.0,0.0,85,0.00,,,0.00,meteohub,2013-10-17 00:07:00,
2013-10-16 20:12:00,55.6,51.4,30.03,NE,45,0.0,0.0,86,0.00,,,0.00,meteohub,2013-10-17 00:12:00,
2013-10-16 20:17:00,55.4,51.3,30.03,West,270,0.0,0.0,86,0.00,,,0.00,meteohub,2013-10-17 00:17:00,
2013-10-16 20:22:00,55.4,51.3,30.06,NNW,338,0.0,0.0,86,0.00,,,0.00,meteohub,2013-10-17 00:22:00,
2013-10-16 20:27:00,55.4,51.3,30.06,NNW,338,0.0,0.0,86,0.00,,,0.00,meteohub,2013-10-17 00:27:00,
2013-10-16 20:32:00,55.2,51.1,30.06,NE,45,0.0,0.0,86,0.00,,,0.00,meteohub,2013-10-17 00:32:00,
2013-10-16 20:37:00,55.2,51.1,30.03,SW,225,2.0,2.0,86,0.00,,,0.00,meteohub,2013-10-17 00:37:00,
2013-10-16 20:42:00,55.0,51.3,30.03,SW,225,0.0,2.0,87,0.00,,,0.00,meteohub,2013-10-17 00:42:00,
2013-10-16 20:47:00,55.0,51.6,30.03,SW,225,0.0,2.0,88,0.00,,,0.00,meteohub,2013-10-17 00:47:00,
2013-10-16 20:52:00,55.0,51.6,30.03,West,270,1.0,2.0,88,0.00,,,0.00,meteohub,2013-10-17 00:52:00,
2013-10-16 20:57:00,54.9,51.4,30.03,NW,315,0.0,2.0,88,0.00,,,0.00,meteohub,2013-10-17 00:57:00,
2013-10-16 21:02:00,54.7,51.3,30.03,WSW,248,0.0,2.0,88,0.00,,,0.00,meteohub,2013-10-17 01:02:00,
2013-10-16 21:07:00,54.5,51.3,30.06,WSW,248,0.0,2.0,89,0.00,,,0.00,meteohub,2013-10-17 01:07:00,
2013-10-16 21:12:00,54.5,51.6,30.06,ESE,112,0.0,0.0,90,0.00,,,0.00,meteohub,2013-10-17 01:12:00,
2013-10-16 21:17:00,54.5,51.6,30.06,East,90,0.0,0.0,90,0.00,,,0.00,meteohub,2013-10-17 01:17:00,
2013-10-16 21:22:00,54.5,51.3,30.03,East,90,0.0,0.0,89,0.00,,,0.00,meteohub,2013-10-17 01:22:00,
2013-10-16 21:27:00,54.5,51.6,30.03,SW,225,0.0,0.0,90,0.00,,,0.00,meteohub,2013-10-17 01:27:00,
2013-10-16 21:37:00,54.3,52.0,30.03,SSW,202,0.0,2.0,92,0.00,,,0.00,meteohub,2013-10-17 01:37:00,
2013-10-16 21:42:00,54.3,52.0,30.03,SSW,202,0.0,2.0,92,0.00,,,0.00,meteohub,2013-10-17 01:42:00,
2013-10-16 21:47:00,54.3,51.8,30.03,SW,225,1.0,0.0,91,0.00,,,0.00,meteohub,2013-10-17 01:47:00,
2013-10-16 21:52:00,54.1,51.6,30.03,SW,225,0.0,1.0,91,0.00,,,0.00,meteohub,2013-10-17 01:52:00,
2013-10-16 21:57:00,54.0,51.1,30.03,WSW,248,0.0,1.0,90,0.00,,,0.00,meteohub,2013-10-17 01:57:00,
2013-10-16 22:02:00,53.6,51.1,30.03,WSW,248,0.0,1.0,91,0.00,,,0.00,meteohub,2013-10-17 02:02:00,
2013-10-16 22:07:00,53.6,51.1,30.00,NNE,22,0.0,0.0,91,0.00,,,0.00,meteohub,2013-10-17 02:07:00,
2013-10-16 22:12:00,53.4,50.9,30.00,ESE,112,0.0,0.0,91,0.00,,,0.00,meteohub,2013-10-17 02:12:00,
2013-10-16 22:17:00,53.2,50.7,30.00,East,90,0.0,2.0,91,0.00,,,0.00,meteohub,2013-10-17 02:17:00,
2013-10-16 22:22:00,53.1,51.1,29.97,SSE,158,0.0,2.0,93,0.00,,,0.00,meteohub,2013-10-17 02:22:00,
2013-10-16 22:27:00,52.9,50.9,29.97,SW,225,0.0,2.0,93,0.00,,,0.00,meteohub,2013-10-17 02:27:00,
2013-10-16 22:32:00,52.5,50.2,29.97,SW,225,0.0,1.0,92,0.00,,,0.00,meteohub,2013-10-17 02:32:00,
2013-10-16 22:37:00,52.3,50.0,30.00,SSE,158,0.0,1.0,92,0.00,,,0.00,meteohub,2013-10-17 02:37:00,
2013-10-16 22:42:00,52.2,50.2,30.00,SW,225,0.0,0.0,93,0.00,,,0.00,meteohub,2013-10-17 02:42:00,
2013-10-16 22:47:00,52.0,50.0,30.00,SW,225,0.0,0.0,93,0.00,,,0.00,meteohub,2013-10-17 02:47:00,
2013-10-16 22:52:00,52.0,50.4,30.00,South,180,0.0,1.0,94,0.00,,,0.00,meteohub,2013-10-17 02:52:00,
2013-10-16 22:57:00,52.0,50.4,30.00,SW,225,0.0,2.0,94,0.00,,,0.00,meteohub,2013-10-17 02:57:00,
2013-10-16 23:02:00,51.8,49.8,30.00,SW,225,0.0,2.0,93,0.00,,,0.00,meteohub,2013-10-17 03:02:00,
2013-10-16 23:07:00,51.8,49.8,30.00,WSW,248,0.0,1.0,93,0.00,,,0.00,meteohub,2013-10-17 03:07:00,
2013-10-16 23:17:00,51.4,49.8,30.00,SSW,202,0.0,0.0,94,0.00,,,0.00,meteohub,2013-10-17 03:17:00,
2013-10-16 23:22:00,51.4,49.8,30.00,SSW,202,0.0,0.0,94,0.00,,,0.00,meteohub,2013-10-17 03:22:00,
2013-10-16 23:27:00,51.4,49.8,30.00,SSW,202,0.0,0.0,94,0.00,,,0.00,meteohub,2013-10-17 03:27:00,
2013-10-16 23:32:00,51.4,49.8,30.00,SSW,202,0.0,0.0,94,0.00,,,0.00,meteohub,2013-10-17 03:32:00,
2013-10-16 23:37:00,51.4,50.0,30.00,SW,225,0.0,0.0,95,0.00,,,0.00,meteohub,2013-10-17 03:37:00,
2013-10-16 23:42:00,51.3,49.6,30.00,SW,225,0.0,0.0,94,0.00,,,0.00,meteohub,2013-10-17 03:42:00,
2013-10-16 23:47:00,51.1,49.5,30.00,South,180,0.0,0.0,94,0.00,,,0.00,meteohub,2013-10-17 03:47:00,
2013-10-16 23:52:00,51.3,49.6,30.00,SW,225,1.0,1.0,94,0.00,,,0.00,meteohub,2013-10-17 03:52:00,
2013-10-16 23:57:00,51.6,50.2,30.00,SSW,202,0.0,2.0,95,0.00,,,0.00,meteohub,2013-10-17 03:57:00,